Home   Weather   Allschwil   Past weeks

Flag for Switzerland Past Weather in Allschwil, Basel-Land, Switzerland — Yesterday and Last 2 Weeks

35 °F

Passing clouds.

Feels Like: 35 °F
Forecast: 35 / 50 °F
Wind: 1 mph from West

Location: Bale-Mulhouse

Current Time: Oct 23, 2016 at 1:35:21 AM

Latest Report: Oct 23, 2016 at 12:00 AM

Visibility: 6 mi

Pressure: 29.98 "Hg

Humidity: 96%

Dew Point: 34 °F

Location of AllschwilLocation

Past Weather in Allschwil — Graph


Allschwil Temperature Yesterday

Maximum temperature yesterday: 54 °F (at 5:00 PM)
Minimum temperature yesterday: 32 °F (at 7:00 AM)
Average temperature yesterday: 42 °F

High & Low Weather Summary for the Past Weeks

High66 °F (Oct 16, 3:00 PM)100% (Oct 12, 6:00 AM)30.29 "Hg (Oct 12, 6:00 AM)
Low31 °F (Oct 13, 2:00 AM)49% (Oct 22, 4:00 PM)29.64 "Hg (Oct 14, 6:00 PM)
Average48 °F85%30.08 "Hg
* Reported Oct 8 12:00 AM — Oct 23 12:00 AM, Allschwil, Weather by CustomWeather, © 2016

Note: Actual official high and low records may vary slightly from our data, if they occured in-between our weather recording intervals... More about our weather records


Allschwil Weather History for the Previous 24 Hours

Scroll right to see more
Time TempWeatherWind HumidityBarometerVisibility
12:00 AM
Sun, Oct 23
35 °FPassing clouds.1 mph96%29.98 "Hg6 mi
11:00 PM
Sat, Oct 22
36 °FClear.No wind96%29.99 "Hg9 mi
10:00 PM36 °FClear.1 mph94%30.00 "Hg9 mi
9:00 PM38 °FClear.2 mph92%29.99 "Hg12 mi
8:00 PM40 °FPassing clouds.2 mph89%29.98 "Hg19 mi
7:00 PM44 °FPassing clouds.2 mph81%29.97 "Hg16 mi
6:00 PM53 °FPassing clouds.No wind54%29.94 "Hg16 mi
5:00 PM54 °FPassing clouds.2 mph53%29.94 "Hg22 mi
4:00 PM54 °FScattered clouds.2 mph49%29.95 "Hg22 mi
3:00 PM53 °FScattered clouds.3 mph55%29.96 "Hg19 mi
2:00 PM54 °FScattered clouds.2 mph58%29.98 "Hg19 mi
1:00 PM53 °FPassing clouds.1 mph58%29.99 "Hg19 mi
12:00 PM48 °FScattered clouds.3 mph70%30.01 "Hg19 mi
11:00 AM44 °FPartly sunny.6 mph79%30.02 "Hg5 mi
10:00 AM39 °FFog.3 mph97%30.04 "Hg2 mi
9:00 AM35 °FFog.5 mph99%30.05 "Hg1 mi
8:00 AM34 °FFog.6 mph99%30.05 "Hg1 mi
7:00 AM32 °FPassing clouds.3 mph95%30.05 "Hg4 mi
6:00 AM34 °FPassing clouds.2 mph97%30.05 "Hg4 mi
5:00 AM35 °FClear.5 mph96%30.04 "Hg4 mi
4:00 AM36 °FChilly.5 mph96%30.05 "Hg4 mi
3:00 AM36 °FChilly.2 mph92%30.06 "Hg5 mi
2:00 AM37 °FOvercast.2 mph94%30.06 "Hg7 mi
1:00 AM38 °FChilly.6 mph91%30.06 "Hg7 mi
Weather by CustomWeather, © 2016

See weather overviewHow to use our weather pages